DW6561 Weather Reports


time (UTC)temp
F
wind
direction
speed
knots
gust
knots
rain 1hr
in
rain 24hr
in
rain mn
in
humidity
%
barometer
mb
20260509080028 55 180 4.3 9.6 0.00 0.00 0.00 60 1019.3
20260509074533 56 184 0.9 7.8 0.00 0.00 0.00 56 1019.3
20260509073025 56 163 5.2 8.7 0.00 0.00 0.00 55 1019.4
20260509071526 58 197 0.9 4.3 0.00 0.00 0.00 51 1019.1
20260509070012 58 204 4.3 8.7 0.00 0.00 0.00 51 1018.8
20260509064506 59 125 3.5 8.7 0.00 0.00 0.00 46 1018.9
20260509063021 58 146 2.6 7.8 0.00 0.00 0.00 44 1018.8
20260509061512 59 180 1.7 4.3 0.00 0.00 0.00 43 1018.8
20260509060015 60 200 0.9 3.5 0.00 0.00 0.00 41 1018.5
20260509054518 60 209 0.0 4.3 0.00 0.00 0.00 41 1018.4
20260509053024 60 208 0.0 3.5 0.00 0.00 0.00 40 1018.3
20260509051513 61 181 0.0 3.5 0.00 0.00 0.00 39 1018.1
20260509050033 61 157 1.7 6.1 0.00 0.00 0.00 40 1018.0
20260509044517 61 241 0.0 0.0 0.00 0.00 0.00 40 1017.7
20260509043032 62 161 0.0 2.6 0.00 0.00 0.00 40 1017.7
20260509041522 63 213 0.0 4.3 0.00 0.00 0.00 39 1017.5
20260509034513 66 195 1.7 3.5 0.00 0.00 0.00 33 1016.8
20260509033029 68 166 0.0 3.5 0.00 0.00 0.00 25 1016.7
20260509031527 69 178 0.0 1.7 0.00 0.00 0.00 24 1016.3
20260509030028 70 24 0.0 1.7 0.00 0.00 0.00 22 1016.0
20260509024518 71 305 0.0 2.6 0.00 0.00 0.00 23 1015.8
20260509023024 72 331 0.0 1.7 0.00 0.00 0.00 25 1015.6
20260509021519 72 316 0.0 6.1 0.00 0.00 0.00 30 1015.4
20260509020022 72 332 0.0 8.7 0.00 0.00 0.00 32 1015.3
20260509014527 73 171 1.7 9.6 0.00 0.00 0.00 30 1014.8
20260509013028 74 182 2.6 13.0 0.00 0.00 0.00 29 1014.7
20260509011524 74 213 3.5 11.3 0.00 0.00 0.00 28 1014.7
20260509010013 75 211 3.5 14.8 0.00 0.00 0.00 27 1014.7
20260509004505 76 352 3.5 13.0 0.00 0.00 0.00 26 1014.5
20260509003004 76 199 2.6 7.8 0.00 0.00 0.00 24 1014.4
20260509001504 76 169 6.1 13.9 0.00 0.00 0.00 24 1014.3
20260509000006 76 195 7.8 18.2 0.00 0.00 0.00 24 1014.3
20260508234507 76 164 6.1 16.5 0.00 0.00 0.00 24 1014.3
20260508231508 76 191 7.8 13.9 0.00 0.00 0.00 21 1014.6
20260508230005 77 167 3.5 9.6 0.00 0.00 0.00 22 1014.7
20260508224520 77 134 1.7 9.6 0.00 0.00 0.00 23 1014.7
20260508223011 76 186 1.7 9.6 0.00 0.00 0.00 22 1014.7
20260508221516 76 239 1.7 8.7 0.00 0.00 0.00 24 1014.8
20260508220009 76 189 5.2 14.8 0.00 0.00 0.00 22 1014.7
20260508213007 75 220 3.5 15.6 0.00 0.00 0.00 24 1015.0
20260508211523 75 350 3.5 10.4 0.00 0.00 0.00 24 1015.0
20260508210017 74 333 4.3 12.2 0.00 0.00 0.00 25 1015.0
20260508204522 73 261 2.6 12.2 0.00 0.00 0.00 29 1015.1
20260508203007 71 303 1.7 16.5 0.00 0.00 0.00 28 1015.0
20260508201515 71 178 3.5 10.4 0.00 0.00 0.00 26 1015.0
20260508200017 72 18 4.3 12.2 0.00 0.00 0.00 25 1015.1
20260508194520 73 65 5.2 13.9 0.00 0.00 0.00 24 1015.0
20260508193025 73 149 2.6 13.0 0.00 0.00 0.00 28 1014.9
20260508191508 72 149 0.9 11.3 0.00 0.00 0.00 29 1014.9
20260508190017 72 159 2.6 9.6 0.00 0.00 0.00 31 1015.1
20260508184513 72 205 1.7 7.0 0.00 0.00 0.00 35 1015.3
20260508183020 70 123 4.3 12.2 0.00 0.00 0.00 31 1015.4
20260508181524 70 192 5.2 10.4 0.00 0.00 0.00 35 1015.4
20260508180007 67 270 3.5 10.4 0.00 0.00 0.00 43 1015.5
20260508174514 65 150 3.5 10.4 0.00 0.00 0.00 47 1015.8
20260508173026 63 126 3.5 10.4 0.00 0.00 0.00 51 1015.7
20260508171531 63 153 5.2 13.0 0.00 0.00 0.00 50 1015.7
20260508170010 64 196 5.2 12.2 0.00 0.00 0.00 50 1015.5
20260508164529 63 176 3.5 13.0 0.00 0.00 0.00 50 1015.4
20260508163026 62 187 6.1 14.8 0.00 0.00 0.00 50 1015.2
20260508161531 61 135 5.2 12.2 0.00 0.00 0.00 51 1015.3
20260508160004 61 140 6.1 12.2 0.00 0.00 0.00 51 1015.0
20260508154503 60 171 6.1 13.9 0.00 0.00 0.00 52 1015.0
20260508153003 60 176 7.0 12.2 0.00 0.00 0.00 51 1014.8
20260508150018 58 184 5.2 13.0 0.00 0.00 0.00 53 1014.7
20260508143018 57 213 7.8 14.8 0.00 0.00 0.00 53 1014.2
20260508141502 57 214 7.0 14.8 0.00 0.00 0.00 53 1014.2
20260508134503 57 161 7.0 14.8 0.00 0.00 0.00 53 1013.9
20260508133011 56 220 6.1 18.2 0.00 0.00 0.00 53 1013.7
20260508130005 56 167 7.0 15.6 0.00 0.00 0.00 49 1013.6
20260508124512 56 197 7.0 13.9 0.00 0.00 0.00 49 1013.6
20260508123007 56 173 6.1 15.6 0.00 0.00 0.00 49 1013.6
20260508121516 55 232 7.0 13.0 0.00 0.00 0.00 50 1013.4
20260508120023 55 174 6.1 13.9 0.00 0.00 0.00 53 1013.6
20260508114521 55 155 7.0 14.8 0.00 0.00 0.00 47 1013.4
20260508111515 56 209 6.1 17.4 0.00 0.00 0.00 47 1013.3
20260508110006 56 168 6.1 16.5 0.00 0.00 0.00 46 1013.3
20260508103008 56 202 6.1 13.0 0.00 0.00 0.00 43 1013.2
20260508101516 57 234 6.1 13.0 0.00 0.00 0.00 42 1013.1
20260508100033 57 173 5.2 15.6 0.00 0.00 0.00 41 1013.0
20260508094519 57 226 7.0 13.9 0.00 0.00 0.00 40 1013.0
20260508093015 57 208 6.1 16.5 0.00 0.00 0.00 39 1013.0
20260508091510 57 223 5.2 11.3 0.00 0.00 0.00 35 1013.1
20260508090018 58 105 5.2 12.2 0.00 0.00 0.00 32 1013.1
20260508084519 58 183 5.2 11.3 0.00 0.00 0.00 30 1013.1
20260508083030 59 139 3.5 11.3 0.00 0.00 0.00 29 1013.4
20260508081519 59 171 3.5 13.9 0.00 0.00 0.00 27 1013.5